Challenge de la Province de Liège

Huy Night Run (10.20 km)

vendredi 01 juin 2018

Vous pouvez trouver Le classement original sur : www.otopservices.be  
CHALLENGE DE LA PROVINCE DE LIEGE
HUY NIGHT RUN
DISTANCE : 10.20 km
vendredi 01 juin 2018
 
Place dos NOM Catégorie Pl/cat temps temps/km Vitesse
01:00:00              
1 7304 AMAURY PAQUET SENIOR H 1 00:31:27 03:05 19.46
2 7130 ARNAUD DELY SENIOR H 2 00:33:01 03:14 18.54
3 7278 LUDWIG LEFEBVRE ESPOIR H 1 00:33:09 03:15 18.46
4 7121 GEOFFRAY GILLET SENIOR H 3 00:33:32 03:17 18.25
5 3146 JOËL BOTTIN ESPOIR H 2 00:34:29 03:23 17.75
6 7757 VINCENT CASTERMANS SENIOR H 4 00:35:16 03:27 17.35
7 7508 PATRICK PHILIPPE VETERAN 1 1 00:35:23 03:28 17.30
8 7297 REMI VAN LOO SENIOR H 5 00:35:40 03:30 17.16
9 7759 LAURENT SPANU SENIOR H 6 00:35:45 03:30 17.12
10 7272 XAVIER HONNAY SENIOR H 7 00:35:54 03:31 17.05
11 7428 FRED LEKEU SENIOR H 8 00:36:03 03:32 16.98
12 7756 MICHAEL CASTERMANS SENIOR H 9 00:36:05 03:32 16.96
13 3046 DENIS SIMONET SENIOR H 10 00:36:12 03:33 16.91
14 35 CEDRIC PETRY SENIOR H 11 00:36:17 03:33 16.87
15 7299 GERT THEUNIS VETERAN 1 2 00:36:26 03:34 16.80
16 7116 MIKE ROCKS SENIOR H 12 00:36:30 03:35 16.77
17 7491 ANAEL ARGENTO SENIOR H 13 00:36:34 03:35 16.74
18 7779 XAVIER BEAUDUIN SENIOR H 14 00:36:53 03:37 16.59
19 175 CHRISTOPHE SCHOLZEN SENIOR H 15 00:37:07 03:38 16.49
20 7427 MAXIME DUMOULIN SENIOR H 16 00:37:16 03:39 16.42
21 7735 ALEXANDRE FLORESCU SENIOR H 17 00:37:35 03:41 16.28
22 7106 FREDERIC DELCHAMBRE VETERAN 1 3 00:37:40 03:42 16.25
23 127 CHRISTOPHE MÉMURLIN SENIOR H 18 00:37:57 03:43 16.13
24 7152 ANTOINE REGNARD SENIOR H 19 00:38:02 03:44 16.09
25 7134 PHILIPPE BRISY VETERAN 1 4 00:38:05 03:44 16.07
26 7454 LAURENT OLIVIER VETERAN 1 5 00:38:08 03:44 16.05
27 3139 DAVID GILLET VETERAN 1 6 00:38:30 03:46 15.90
28 7227 BENOIT RASQUAIN VETERAN 1 7 00:38:38 03:47 15.84
29 3074 FRÉDÉRIC ROBINET VETERAN 1 8 00:38:49 03:48 15.77
30 7713 KARIM BELMILOUD VETERAN 1 9 00:38:53 03:49 15.74
31 7281 PIERRE-HENRI CORSWAREM SENIOR H 20 00:38:57 03:49 15.71
32 3091 BRIEUC D'INVERNO SENIOR H 21 00:39:02 03:50 15.68
33 7419 ANTONI DEWAIDE VETERAN 1 10 00:39:03 03:50 15.67
34 181 THIERRY PAQUES VÉTÉRAN 2 1 00:39:23 03:52 15.54
35 3134 MICHAEL D'AVELINO VETERAN 1 11 00:39:24 03:52 15.53
36 186 HERVE DEBATTY VETERAN 1 12 00:39:28 03:52 15.51
37 14 YVES GARIN VETERAN 1 13 00:39:30 03:52 15.49
38 3077 DAVID FRISON VETERAN 1 14 00:39:34 03:53 15.47
39 7096 STEPHANE ROCKS SENIOR H 22 00:39:37 03:53 15.45
40 7009 RONALD MOIRANO SENIOR H 23 00:39:39 03:53 15.44
41 3069 FRÉDÉRIC GOCHEL SENIOR H 24 00:39:45 03:54 15.40
42 3084 MATHY DOMINIQUE VETERAN 3 1 00:39:46 03:54 15.39
43 7371 ANDRE ESTEBEZ VETERAN 1 15 00:39:53 03:55 15.34
44 173 PATRICK CHRISTODOULEAS VÉTÉRAN 2 2 00:39:57 03:55 15.32
45 7213 JOHAN SERVAIS VETERAN 1 16 00:40:05 03:56 15.27
46 7341 JEAN-PHILIPPE SCALAIS VETERAN 1 17 00:40:19 03:57 15.18
47 7268 FRANÇOIS DUBRAY VETERAN 1 18 00:40:22 03:57 15.16
48 7043 FRANCOIS ROBA SENIOR H 25 00:40:27 03:58 15.13
49 7091 AMAURY HENNUY SENIOR H 26 00:40:30 03:58 15.11
50 7012 HUGUES LANGE SENIOR H 27 00:40:33 03:59 15.09
51 63 JEAN-MARC DANIELS VÉTÉRAN 2 3 00:40:34 03:59 15.09
52 161 BENJAMIN DE HEY ESPOIR H 3 00:40:35 03:59 15.08
53 7397 MARTIN BANK SENIOR H 28 00:40:37 03:59 15.07
54 239 FLORENT NIHANT SENIOR H 29 00:40:37 03:59 15.07
55 3131 SANDRINE HOST AINÉE 1 1 00:40:38 03:59 15.06
56 7270 FRANCIS NICOLAS VÉTÉRAN 2 4 00:40:38 03:59 15.06
57 7724 MEHDI SAYOUD SENIOR H 30 00:40:41 03:59 15.04
58 7151 ADRIEN VINCENT ESPOIR H 4 00:40:50 04:00 14.99
59 7093 JULIEN CANMARATA SENIOR H 31 00:40:51 04:00 14.98
60 24 JONATHAN JORIS SENIOR H 32 00:40:51 04:00 14.98
61 3129 MARTINE DETREZ AINÉE 1 2 00:41:04 04:02 14.90
62 7335 MAXENCE DE LOCHT SENIOR H 33 00:41:09 04:02 14.87
63 7569 DAMIEN JOST SENIOR H 34 00:41:20 04:03 14.81
64 7331 BENOIT PRINCIPATO SENIOR H 35 00:41:21 04:03 14.80
65 7005 JULIEN BERG SENIOR H 36 00:41:22 04:03 14.79
66 7201 MASON MORHET SENIOR H 37 00:41:27 04:04 14.76
67 16 ETIENNE BUCKINX VÉTÉRAN 2 5 00:41:34 04:05 14.72
68 7353 NATHAN MEGIDO SENIOR H 38 00:41:35 04:05 14.72
69 3030 AUGUSTE FRANCKART ESPOIR H 5 00:41:38 04:05 14.70
70 19 LUCA MERCIADRI SENIOR H 39 00:41:40 04:05 14.69
71 3340 GEOFFREY MOMMEN SENIOR H 40 00:41:40 04:05 14.69
72 7386 THOMAS JACQUET SENIOR H 41 00:41:43 04:05 14.67
73 7245 ODIN LEMESTREZ ESPOIR H 6 00:41:44 04:05 14.66
74 7383 STEPHEN DIEDENEN VETERAN 1 19 00:41:46 04:06 14.65
75 7450 PIERRE DAUBY SENIOR H 42 00:41:48 04:06 14.64
76 7393 PASCAL LEHANCE VETERAN 1 20 00:41:55 04:07 14.60
77 7424 JEAN YVES BURON SENIOR H 43 00:41:57 04:07 14.59
78 7101 BASTIEN MENCHIOR SENIOR H 44 00:42:03 04:07 14.55
79 7362 JEROME COLLINGE SENIOR H 45 00:42:05 04:08 14.54
80 7097 FRANÇOIS MICHELIS SENIOR H 46 00:42:13 04:08 14.50
81 7285 MELANIE ROSU SENIOR D 1 00:42:18 04:09 14.47
82 68 JEAN-MARIE CHUDYBA VÉTÉRAN 2 6 00:42:18 04:09 14.47
83 7110 CHRISTOPHE LUCAS VETERAN 1 21 00:42:20 04:09 14.46
84 3140 JASON QUITTELIER SENIOR H 47 00:42:21 04:09 14.45
85 7200 BENOITE VAN RENTERGHEM SENIOR D 2 00:42:21 04:09 14.45
86 7446 FRANCOIS JASSELETTE SENIOR H 48 00:42:26 04:10 14.42
87 7494 BENOIT BRANS SENIOR H 49 00:42:27 04:10 14.42
88 7510 IRENE TOSI SENIOR D 3 00:42:33 04:10 14.38
89 7237 GUILLAUME HERBEN SENIOR H 50 00:42:36 04:11 14.37
90 3040 CHARLES REINDERS ESPOIR H 7 00:42:36 04:11 14.37
91 7761 MAXIME FILSFILS SENIOR H 51 00:42:39 04:11 14.35
92 7283 GERMAIN MONFORT SENIOR H 52 00:42:53 04:12 14.27
93 3127 OLIVIER BRY SENIOR H 53 00:42:56 04:13 14.25
94 7485 PIERRE-YVES VAN TIGGELEN SENIOR H 54 00:43:01 04:13 14.23
95 57 PASCAL BOLLEN VÉTÉRAN 2 7 00:43:05 04:13 14.21
96 7218 DYLAN LANTIN ESPOIR H 8 00:43:08 04:14 14.19
97 3285 GAUTHIER KEUTGEN VETERAN 1 22 00:43:11 04:14 14.17
98 7730 FREDERIC LEMIRE VETERAN 1 23 00:43:12 04:14 14.17
99 3148 GEOFFREY PRINSENS SENIOR H 55 00:43:16 04:15 14.14
100 3357 SÉBASTIEN PAQUE SENIOR H 56 00:43:22 04:15 14.11
101 7332 THEO PARMONT ESPOIR H 9 00:43:22 04:15 14.11
102 3142 GAETAN HENRY VETERAN 1 24 00:43:28 04:16 14.08
103 143 MICHEL JEUKENS VETERAN 1 25 00:43:32 04:16 14.06
104 7355 VINCENT MEUNIER SENIOR H 57 00:43:36 04:16 14.04
105 7316 FABIAN ENGLEBERT SENIOR H 58 00:43:42 04:17 14.00
106 7777 JEROME CLOSE SENIOR H 59 00:43:48 04:18 13.97
107 7211 HADRIEN RIGA ESPOIR H 10 00:43:50 04:18 13.96
108 7300 FLORENT CLOSSET SENIOR H 60 00:43:51 04:18 13.96
109 7157 CEDRIC DE SAUVAGE SENIOR H 61 00:43:52 04:18 13.95
110 7147 GÉRALD HONNAY SENIOR H 62 00:44:00 04:19 13.91
111 3223 CEDRIC DUBOIS SENIOR H 63 00:44:00 04:19 13.91
112 7234 MARC LONEUX VETERAN 1 26 00:44:01 04:19 13.90
113 7322 MICHAEL D'ALESSANDRO SENIOR H 64 00:44:04 04:19 13.89
114 7363 DIMITRY DOTRIMONT SENIOR H 65 00:44:05 04:19 13.88
115 3066 PATRICK CREMER VETERAN 3 2 00:44:13 04:20 13.84
116 7085 AURÉLIEN HUMBLET SENIOR H 66 00:44:15 04:20 13.83
117 7349 JEAN-FRANÇOIS DELVAUX SENIOR H 67 00:44:18 04:21 13.81
118 7069 YORICK LAROCK SENIOR H 68 00:44:24 04:21 13.78
119 7131 JOEL MOMMEN VÉTÉRAN 2 8 00:44:26 04:21 13.77
120 7221 BERTRAND MARDAGT VETERAN 1 27 00:44:27 04:21 13.77
121 3143 FRÉDÉRIC GRAINDORGE VETERAN 1 28 00:44:27 04:21 13.77
122 7111 BENOIT BAUMANS VETERAN 1 29 00:44:28 04:22 13.76
123 7720 LEOPOLD KEMPENEERS VETERAN 1 30 00:44:29 04:22 13.76
124 7411 BASTIEN LERUTH SENIOR H 69 00:44:30 04:22 13.75
125 7036 JULIEN GAVAGE SENIOR H 70 00:44:31 04:22 13.75
126 7367 DANIEL ZANETTI VETERAN 1 31 00:44:32 04:22 13.74
127 7380 ERIC DETRY VETERAN 1 32 00:44:37 04:22 13.72
128 7232 DAN MILAN VÉTÉRAN 2 9 00:44:38 04:23 13.71
129 7719 STEPHANIE ROCK SENIOR D 4 00:44:39 04:23 13.71
130 7064 EVE GREGOIRE SENIOR D 5 00:44:42 04:23 13.69
131 3063 SÉBASTIEN DAWANT SENIOR H 71 00:44:45 04:23 13.68
132 7738 KEVIN LAMBERT SENIOR H 72 00:44:49 04:24 13.66
133 7752 MATHIEU DURVIAUX SENIOR H 73 00:44:59 04:25 13.61
134 3141 JAN CLAEREN SENIOR H 74 00:45:05 04:25 13.57
135 2884 DAMIEN LANTIN SENIOR H 75 00:45:05 04:25 13.57
136 7515 SIMON RENARD SENIOR H 76 00:45:07 04:25 13.56
137 7210 CHRISTOPHE JULON VETERAN 1 33 00:45:11 04:26 13.54
138 3164 VALÉRIE BINJE AINÉE 1 3 00:45:15 04:26 13.52
139 7784 NICOLAS FASTRE SENIOR H 77 00:45:20 04:27 13.50
140 7796 MAXIME WEBER ESPOIR H 11 00:45:20 04:27 13.50
141 7440 BENOIT LECOMTE VETERAN 1 34 00:45:21 04:27 13.50
142 7445 PASCAL LION VETERAN 1 35 00:45:23 04:27 13.49
143 7045 EMMANUEL MARTINESSE SENIOR H 78 00:45:30 04:28 13.45
144 7038 NICOLAS RORIVE SENIOR H 79 00:45:34 04:28 13.43
145 7500 GASPARD GROSJEAN SENIOR H 80 00:45:37 04:28 13.42
146 7169 PIERRE-YVES DU BOIS SENIOR H 81 00:45:39 04:29 13.41
147 240 FABIAN NIHANT VÉTÉRAN 2 10 00:45:41 04:29 13.40
148 7269 JEROME GUILMAIN VETERAN 1 36 00:45:42 04:29 13.39
149 7267 PIERRE MOULIN SENIOR H 82 00:45:44 04:29 13.38
150 7080 QUENTIN DEFLANDRE SENIOR H 83 00:45:45 04:29 13.38
151 7755 REDWAN HMANOU SENIOR H 84 00:45:45 04:29 13.38
152 3315 PHILIPPE LERUSSE VÉTÉRAN 2 11 00:45:47 04:29 13.37
153 7448 MAXIME ANDRE SENIOR H 85 00:45:48 04:29 13.36
154 7495 STEVE BABITZ SENIOR H 86 00:45:49 04:30 13.36
155 7398 DANIEL WEIDNER VETERAN 3 3 00:45:49 04:30 13.36
156 7797 FREDERIC MORAS VETERAN 1 37 00:45:51 04:30 13.35
157 3061 GREGORY RENAULT VETERAN 1 38 00:45:54 04:30 13.33
158 7354 ROGER VAN LANGEVELD VETERAN 3 4 00:45:58 04:30 13.31
159 180 BENOÎT PAQUES SENIOR H 87 00:46:02 04:31 13.29
160 7493 QUENTIN MALOIR SENIOR H 88 00:46:04 04:31 13.29
161 3289 CHARLES LAFLEUR SENIOR H 89 00:46:05 04:31 13.28
162 7191 TERENCE TOURNOY ESPOIR H 12 00:46:06 04:31 13.28
163 7782 THIERRY LAMBRIX VETERAN 1 39 00:46:06 04:31 13.28
164 7162 VINCENT MACQ VETERAN 1 40 00:46:08 04:31 13.27
165 7186 WILLIAM BOUCHAT SENIOR H 90 00:46:10 04:32 13.26
166 7144 CORENTIN GEVERS SENIOR H 91 00:46:13 04:32 13.24
167 3326 KEVIN MACORS SENIOR H 92 00:46:14 04:32 13.24
168 7175 KENNY SCHOUTTETEN SENIOR H 93 00:46:17 04:32 13.22
169 7173 ALAN SCHOUTTETEN SENIOR H 94 00:46:20 04:33 13.21
170 7102 JEROME BAMBRAIN SENIOR H 95 00:46:22 04:33 13.20
171 7303 STEPHANE POUNAY SENIOR H 96 00:46:24 04:33 13.19
172 51 LAURENT KNAPEN VETERAN 3 5 00:46:26 04:33 13.18
173 7456 PAULINE LENS SENIOR D 6 00:46:28 04:33 13.17
174 7455 THOMAS JADOT SENIOR H 97 00:46:28 04:33 13.17
175 7192 THOMAS MARECHAL SENIOR H 98 00:46:34 04:34 13.14
176 3132 RAPHAËL NÉLIS SENIOR H 99 00:46:35 04:34 13.14
177 7412 NATHAN BOXUS SENIOR H 100 00:46:36 04:34 13.13
178 3337 LUCAS MÉTENS ESPOIR H 13 00:46:42 04:35 13.10
179 7758 NELSON NAWEZI SENIOR H 101 00:46:46 04:35 13.09
180 3125 JULIEN MATHELART SENIOR H 102 00:46:47 04:35 13.08
181 7273 THEO STOQUART ESPOIR H 14 00:46:47 04:35 13.08
182 7260 BENOIT SEYNAEVE VETERAN 1 41 00:46:48 04:35 13.08
183 7475 GILLES SEUTIN SENIOR H 103 00:46:48 04:35 13.08
184 7261 STEVE PIRE SENIOR H 104 00:46:51 04:36 13.06
185 7339 NICOLAS STURAM SENIOR H 105 00:46:52 04:36 13.06
186 7276 ADRIENNE DE LA CRUZ ROOLA SENIOR D 7 00:46:54 04:36 13.05
187 3019 AXEL LAGRANGE SENIOR H 106 00:46:55 04:36 13.04
188 7277 GEOFFREY BONGARD SENIOR H 107 00:46:59 04:36 13.03
189 7368 MAXIME DOL SENIOR H 108 00:47:00 04:36 13.02
190 3300 SEBASTIEN LANSSENS SENIOR H 109 00:47:00 04:36 13.02
191 7071 THOMAS MIEZAL SENIOR H 110 00:47:01 04:37 13.02
192 7041 NICOLAS STEUCKERS ESPOIR H 15 00:47:04 04:37 13.00
193 7028 ERIC BLACHERE VÉTÉRAN 2 12 00:47:04 04:37 13.00
194 7505 LORENZO PIZZINATO SENIOR H 111 00:47:04 04:37 13.00
195 7145 DENIS LAMBION SENIOR H 112 00:47:08 04:37 12.98
196 3363 HERVE PIEDBOEUF SENIOR H 113 00:47:08 04:37 12.98
197 7425 JOSE FOGUENNE VÉTÉRAN 2 13 00:47:13 04:38 12.96
198 3184 EMELINE CLÉMENT SENIOR D 8 00:47:14 04:38 12.96
199 3244 MATTHIEU GAUTHY SENIOR H 114 00:47:15 04:38 12.95
200 3031 MÉLANIE GODEFROID SENIOR D 9 00:47:16 04:38 12.95
201 7414 ROSARIO LOFORTE VETERAN 1 42 00:47:16 04:38 12.95
202 3081 MICHELE D'ANTUONO VÉTÉRAN 2 14 00:47:22 04:39 12.92
203 3322 THOMAS LORIAUX SENIOR H 115 00:47:23 04:39 12.92
204 7122 MARIE COOSEMANS SENIOR D 10 00:47:24 04:39 12.91
205 7728 VALENTIN MARCHAL SENIOR H 116 00:47:24 04:39 12.91
206 7468 LORYS COUMONT ESPOIR H 16 00:47:25 04:39 12.91
207 7430 LUDOVIC BRAGARD SENIOR H 117 00:47:26 04:39 12.90
208 7266 GERY AUQUIER VETERAN 3 6 00:47:27 04:39 12.90
209 7431 NICOLAS FRANCOIS SENIOR H 118 00:47:27 04:39 12.90
210 3206 YANNIC DELANDE VETERAN 1 43 00:47:27 04:39 12.90
211 7381 BRUNO CHABOTHIER VETERAN 1 44 00:47:28 04:39 12.89
212 7451 PHILIPPE PETITJEAN VÉTÉRAN 2 15 00:47:37 04:40 12.85
213 3135 COLINNE ORBAN SENIOR D 11 00:47:43 04:41 12.83
214 7313 ROBIN MODAERT ESPOIR H 17 00:47:45 04:41 12.82
215 65 PASCAL SAVELBERG VETERAN 1 45 00:47:46 04:41 12.81
216 7248 BERTRAND RASQUAIN VETERAN 1 46 00:47:46 04:41 12.81
217 7263 DIMITRI COP SENIOR H 119 00:47:47 04:41 12.81
218 7773 OLIVER MICHEL VETERAN 1 47 00:47:47 04:41 12.81
219 7707 BRUNO IENCO VÉTÉRAN 2 16 00:47:48 04:41 12.80
220 3176 JEAN-PIERRE BUYS VÉTÉRAN 2 17 00:47:49 04:41 12.80
221 7516 BENJAMIN RENARD SENIOR H 120 00:47:50 04:41 12.79
222 7388 CHRISTOPHE MORVAL SENIOR H 121 00:47:52 04:42 12.79
223 7474 HADRIEN LEGROS <16 H 1 00:47:52 04:42 12.79
224 7049 QUENTIN VAN DE VOORDE SENIOR H 122 00:47:53 04:42 12.78
225 7126 JUSTIN GRATIEN SENIOR H 123 00:47:56 04:42 12.77
226 7460 RAPHAEL PECHEUR SENIOR H 124 00:47:58 04:42 12.76
227 350 JEAN WEERTS VETERAN 1 48 00:48:00 04:42 12.75
228 7055 BENJAMIN PIRET SENIOR H 125 00:48:02 04:43 12.74
229 7329 ROMAIN GOBERT ESPOIR H 18 00:48:03 04:43 12.74
230 7118 MANUEL BOSCOLO VETERAN 1 49 00:48:04 04:43 12.73
231 7413 ROSARIO SCIFO VETERAN 1 50 00:48:05 04:43 12.73
232 7208 ALEXANDRE WIMOTTE VETERAN 1 51 00:48:07 04:43 12.72
233 7207 JEAN-FRANCOIS DIDION VETERAN 1 52 00:48:07 04:43 12.72
234 7103 RAFAEL FADISTA VETERAN 1 53 00:48:07 04:43 12.72
235 7044 BENJAMIN JAMOTTE SENIOR H 126 00:48:08 04:43 12.71
236 3175 BENJAMIN BUYS SENIOR H 127 00:48:10 04:43 12.71
237 7501 MAXIME COUNSON SENIOR H 128 00:48:11 04:43 12.70
238 7612 DAVID LAMPROYE SENIOR H 129 00:48:11 04:43 12.70
239 7320 LOIC CHARLOT SENIOR H 130 00:48:12 04:44 12.70
240 7372 NICOLAS EVRARD SENIOR H 131 00:48:13 04:44 12.69
241 3436 YOURI ENGLEBERT ESPOIR H 19 00:48:13 04:44 12.69
242 3262 JULIEN HANSOUL SENIOR H 132 00:48:14 04:44 12.69
243 3297 VINCENT LAMATTINA VETERAN 1 54 00:48:15 04:44 12.68
244 7204 GREGORY LEPAGE VETERAN 1 55 00:48:18 04:44 12.67
245 7330 ROMAIN HANOZET ESPOIR H 20 00:48:26 04:45 12.64
246 7001 NICOLAS RICHEL SENIOR H 133 00:48:27 04:45 12.63
247 7506 OLIVIER BOLAND SENIOR H 134 00:48:27 04:45 12.63
248 7733 FREDERIC TADINO VETERAN 1 56 00:48:28 04:45 12.63
249 7416 PIERRE DE PASQUA SENIOR H 135 00:48:29 04:45 12.62
250 7344 KEVIN L HOIR SENIOR H 136 00:48:29 04:45 12.62
251 3279 SAM KELDERMANS SENIOR H 137 00:48:31 04:45 12.61
252 3020 ROMÉO LAGRANGE <16 H 2 00:48:33 04:46 12.61
253 3271 DOMINIQUE JAA VETERAN 1 57 00:48:34 04:46 12.60
254 7098 JEAN COUNE SENIOR H 138 00:48:35 04:46 12.60
255 7396 GILLES PELET SENIOR H 139 00:48:38 04:46 12.58
256 3185 GUILLAUME CLOSSET SENIOR H 140 00:48:39 04:46 12.58
257 7783 QUENTIN RICHARD SENIOR H 141 00:48:40 04:46 12.58
258 225 J LUC LETELLIER VÉTÉRAN 2 18 00:48:40 04:46 12.58
259 3432 GEOFFRAY WARNANTS SENIOR H 142 00:48:41 04:46 12.57
260 3145 ALBERT VANDENSAVEL VETERAN 3 7 00:48:41 04:46 12.57
261 7340 BRUNO DESSART SENIOR H 143 00:48:46 04:47 12.55
262 7133 PIERRE RIFFON SENIOR H 144 00:48:46 04:47 12.55
263 7315 DENIS LEMAL VÉTÉRAN 2 19 00:48:46 04:47 12.55
264 7766 XAVIER BERTRAND SENIOR H 145 00:48:47 04:47 12.55
265 23 OLIVIER BURNIAT SENIOR H 146 00:48:47 04:47 12.55
266 7125 JOFFREY GRATIEN SENIOR H 147 00:48:51 04:47 12.53
267 7242 ANDY STELLA SENIOR H 148 00:48:52 04:47 12.52
268 3121 CHRISTELLE DEJARDIN AINÉE 1 4 00:48:54 04:48 12.52
269 7296 JEAN-MARC URBANI VÉTÉRAN 2 20 00:48:55 04:48 12.51
270 7753 ANTHONI MODAVE SENIOR H 149 00:48:56 04:48 12.51
271 194 CHRISTOPHE DETRIXHE VETERAN 1 58 00:48:58 04:48 12.50
272 7560 MICHAEL COMITO SENIOR H 150 00:48:58 04:48 12.50
273 7163 PATRICK BERTRAND VETERAN 1 59 00:48:59 04:48 12.49
274 7307 THIBAUT GUSTIN SENIOR H 151 00:48:59 04:48 12.49
275 7253 GOEFFREY TUTELAIRE SENIOR H 152 00:48:59 04:48 12.49
276 2878 WIM BORREY SENIOR H 153 00:49:02 04:48 12.48
277 7507 DIMITRI DUCARME SENIOR H 154 00:49:03 04:49 12.48
278 7480 DRIGO ROSS SENIOR H 155 00:49:11 04:49 12.44
279 7754 AXEL DELHALLE SENIOR H 156 00:49:13 04:50 12.43
280 54 JOEFREY ROUFOSSE VÉTÉRAN 2 21 00:49:16 04:50 12.42
281 3075 MICHEL ROBINET VÉTÉRAN 2 22 00:49:18 04:50 12.41
282 7708 JULIEN GENICOT SENIOR H 157 00:49:19 04:50 12.41
283 7772 ALEXANDRE BORLON SENIOR H 158 00:49:20 04:50 12.41
284 7567 OLIVIER DOTRIMONT VETERAN 1 60 00:49:21 04:50 12.40
285 7306 PAUL VANVINCKENROYE VÉTÉRAN 2 23 00:49:22 04:50 12.40
286 7410 YANNICK CREVELS SENIOR H 159 00:49:22 04:50 12.40
287 7310 BENOIT MATAGNE VETERAN 1 61 00:49:23 04:50 12.39
288 7158 REGINALD LEMAIRE SENIOR H 160 00:49:25 04:51 12.38
289 3105 MATHIEU WANZOUL SENIOR H 161 00:49:27 04:51 12.38
290 7319 CARLOS SANELLI SENIOR H 162 00:49:27 04:51 12.38
291 7023 CHRISTOPHE CORNET VETERAN 1 62 00:49:28 04:51 12.37
292 7247 THOMAS EVRARD SENIOR H 163 00:49:29 04:51 12.37
293 7013 CHRISTIAN SAM VETERAN 1 63 00:49:29 04:51 12.37
294 3372 JULIAN POGORZELSKI SENIOR H 164 00:49:32 04:51 12.36
295 7467 JUSTINE GUBIN SENIOR D 12 00:49:33 04:51 12.35
296 3361 ROMAIN PHILIPPOT SENIOR H 165 00:49:34 04:52 12.35
297 3324 MERIADEC LUX SENIOR H 166 00:49:35 04:52 12.34
298 7395 JULIEN DELHALLE SENIOR H 167 00:49:36 04:52 12.34
299 3211 ALAIN DELENS SENIOR H 168 00:49:38 04:52 12.33
300 7786 JONATHAN DE CECCO SENIOR H 169 00:49:38 04:52 12.33
301 7566 SEBASTIEN JAVAUX SENIOR H 170 00:49:39 04:52 12.33
302 3058 MARIE-HÉLÈNE SAUVAGE SENIOR D 13 00:49:41 04:52 12.32
303 7487 PIERO LACOLA VÉTÉRAN 2 24 00:49:42 04:52 12.31
304 7305 SAMUEL DULIEU SENIOR H 171 00:49:42 04:52 12.31
305 3416 MANUEL VANDEVELD VETERAN 1 64 00:49:43 04:52 12.31
306 7466 BRIEUC VANOLANDE SENIOR H 172 00:49:44 04:53 12.31
307 3217 PATRICK DETINE VETERAN 1 65 00:49:44 04:53 12.31
308 7795 NICOLAS BARON SENIOR H 173 00:49:44 04:53 12.31
309 3359 FRANCK PAULUS SENIOR H 174 00:49:46 04:53 12.30
310 7799 HUGO BACKEN ESPOIR H 21 00:49:48 04:53 12.29
311 7288 FREDERIC GENDEBIEN SENIOR H 175 00:49:49 04:53 12.29
312 7426 YVES HANQUET VÉTÉRAN 2 25 00:49:51 04:53 12.28
313 215 JEAN-PHILIPPE SOMJA SENIOR H 176 00:49:52 04:53 12.27
314 7370 DAVID LAURENT SENIOR H 177 00:49:53 04:53 12.27
315 7107 MARTIN LEROUX SENIOR H 178 00:49:56 04:54 12.26
316 3296 THOMAS LAMATTINA ESPOIR H 22 00:49:56 04:54 12.26
317 3172 ANDY BRIFFOZ SENIOR H 179 00:49:57 04:54 12.25
318 3325 STÉPHANIE MACHIELS SENIOR D 14 00:49:59 04:54 12.24
319 3120 MICHAËL GYEN VETERAN 1 66 00:50:00 04:54 12.24
320 7449 FRANCOIS GRANDJEAN SENIOR H 180 00:50:02 04:54 12.23
321 7774 DELPHINE DOCQUIER SENIOR D 15 00:50:03 04:54 12.23
322 7128 LUCIEN CADPEGGIO VETERAN 1 67 00:50:06 04:55 12.22
323 174 CLAUDE HERZET VETERAN 3 8 00:50:08 04:55 12.21
324 7800 BASTIEN VANDERHEYDEN SENIOR H 181 00:50:14 04:55 12.18
325 7311 FABIAN VALDES VETERAN 1 68 00:50:18 04:56 12.17
326 7418 FIONA ROTA SENIOR D 16 00:50:21 04:56 12.15
327 3213 ARNAUD DELOYER SENIOR H 182 00:50:24 04:56 12.14
328 7181 NICOLAS MATAGNE SENIOR H 183 00:50:25 04:57 12.14
329 7348 CORENTIN LEDENT SENIOR H 184 00:50:28 04:57 12.13
330 3118 MICHAEL BELAIRE SENIOR H 185 00:50:29 04:57 12.12
331 7084 ENZO ZUCCARINI SENIOR H 186 00:50:31 04:57 12.11
332 3214 BAPTISTE DELWICHE SENIOR H 187 00:50:35 04:58 12.10
333 7387 GREGORY CHUKART VETERAN 1 69 00:50:36 04:58 12.09
334 7519 QUENTIN VAN BINST SENIOR H 188 00:50:38 04:58 12.09
335 7484 ARNAUD DENIS SENIOR H 189 00:50:39 04:58 12.08
336 7124 ANTOINE DELVAUX SENIOR H 190 00:50:39 04:58 12.08
337 7379 DELPHINE LEVAQUE AINÉE 1 5 00:50:40 04:58 12.08
338 7442 JONATHAN BELLAIRE VETERAN 1 70 00:50:40 04:58 12.08
339 7518 HERVE HUBEAUX SENIOR H 191 00:50:41 04:58 12.07
340 7520 FRANCOIS ROSMEULEN SENIOR H 192 00:50:41 04:58 12.07
341 7732 MANU CHARLES VETERAN 1 71 00:50:42 04:58 12.07
342 3086 SÉBASTIEN MICHOTTE VETERAN 1 72 00:50:43 04:58 12.07
343 7109 MICHELANGELO VANDENBOSCH VETERAN 1 73 00:50:46 04:59 12.06
344 3059 ARTHUR HEINE <16 H 3 00:50:50 04:59 12.04
345 7700 HUDO MAYELE SENIOR H 193 00:50:52 04:59 12.03
346 7108 PIERRE DE MOOR SENIOR H 194 00:50:52 04:59 12.03
347 7546 RENARD BASTIEN SENIOR H 195 00:50:53 04:59 12.03
348 3400 CHRISTOPHE SPRUYT VETERAN 1 74 00:50:55 05:00 12.02
349 7301 FABRICE SEVRIN SENIOR H 196 00:50:59 05:00 12.00
350 7177 FABIAN LETIHON VETERAN 1 75 00:51:00 05:00 12.00
351 85 ERIC LESSAIN VÉTÉRAN 2 26 00:51:05 05:00 11.98
352 3240 BENJAMIN GABRIEL SENIOR H 197 00:51:12 05:01 11.95
353 3021 VLADY ANTSON ESPOIR H 23 00:51:14 05:01 11.95
354 7217 GARY KINET SENIOR H 198 00:51:14 05:01 11.95
355 7702 PASCAL GEORIS VETERAN 1 76 00:51:15 05:01 11.94
356 3282 RENAUD KERSTEN SENIOR H 199 00:51:16 05:02 11.94
357 3260 MICHEL GRAFF VETERAN 3 9 00:51:16 05:02 11.94
358 7154 DOMINIQUE BERTRAND VÉTÉRAN 2 27 00:51:16 05:02 11.94
359 7326 REGINE CORNET AINÉE 1 6 00:51:18 05:02 11.93
360 7464 VALENTIN HENROT SENIOR H 200 00:51:19 05:02 11.93
361 7573 FLORIAN COLON SENIOR H 201 00:51:20 05:02 11.92
362 98 DIMITRI MANFÉ SENIOR H 202 00:51:20 05:02 11.92
363 7390 PIERRE-YVES CEROY SENIOR H 203 00:51:22 05:02 11.91
364 7778 ALAIN WOLWERTZ VETERAN 1 77 00:51:23 05:02 11.91
365 7406 BRUNO SIMON VETERAN 3 10 00:51:24 05:02 11.91
366 170 LUCIANO BATTISTINI VETERAN 3 11 00:51:25 05:02 11.90
367 7794 PIERRE-YVES VANDEBERG SENIOR H 204 00:51:26 05:03 11.90
368 7259 ERIC LEROY VETERAN 1 78 00:51:26 05:03 11.90
369 7525 ALAIN LIENARD SENIOR H 205 00:51:27 05:03 11.90
370 3225 FABRICE DUBOIS SENIOR H 206 00:51:28 05:03 11.89
371 7073 PATRICE CORNELIS VÉTÉRAN 2 28 00:51:31 05:03 11.88
372 27 MANON COLLIN SENIOR D 17 00:51:32 05:03 11.88
373 7423 RENAUD DOUFFET SENIOR H 207 00:51:33 05:03 11.87
374 7197 NICOLAS DELHOUGNE SENIOR H 208 00:51:35 05:03 11.86
375 7070 MARC MIEZAL VETERAN 1 79 00:51:36 05:04 11.86
376 7703 AMBROISE DESTREE SENIOR D 18 00:51:38 05:04 11.85
377 7229 ROBERT GILLES VÉTÉRAN 2 29 00:51:38 05:04 11.85
378 7435 MICHEL LAPRELE VETERAN 1 80 00:51:38 05:04 11.85
379 221 EDOUARD MORANA VÉTÉRAN 2 30 00:51:43 05:04 11.83
380 3380 ELISABETH REINDERS SENIOR D 19 00:51:46 05:05 11.82
381 7407 JEROME FRONZEE SENIOR H 209 00:51:48 05:05 11.81
382 7369 PIERRE LAMBION SENIOR H 210 00:51:49 05:05 11.81
383 7581 SIMON DIERICKX SENIOR H 211 00:51:51 05:05 11.80
384 3287 LAURENT KLINKENBERG VETERAN 1 81 00:51:52 05:05 11.80
385 7365 BENOIT BAWIN VETERAN 1 82 00:51:53 05:05 11.80
386 7504 FLORENT MEYER SENIOR H 212 00:51:53 05:05 11.80
387 3173 LUDO BRIFFOZ VÉTÉRAN 2 31 00:51:55 05:05 11.79
388 7439 GILLES FASTRE SENIOR H 213 00:51:55 05:05 11.79
389 7282 FABIAN DEBOUNY SENIOR H 214 00:51:56 05:05 11.78
390 3396 SEBASTIEN SIMKAY SENIOR H 215 00:51:57 05:06 11.78
391 7223 CHRISTOPHE SACCHI SENIOR H 216 00:51:57 05:06 11.78
392 3154 HUGO AMIABLE <16 H 4 00:51:58 05:06 11.78
393 3155 XAVIER ANCIA SENIOR H 217 00:51:59 05:06 11.77
394 3194 AMAURY CUPPENS SENIOR H 218 00:52:01 05:06 11.77
395 7129 MARGAUX BEAUCLERCQ ESPOIR D 1 00:52:06 05:06 11.75
396 7750 ROMUALD HONNAY SENIOR H 219 00:52:07 05:07 11.74
397 3033 MAXIME KINET ESPOIR H 24 00:52:09 05:07 11.74
398 7358 NOAH KABANDA <16 H 5 00:52:11 05:07 11.73
399 7194 NICOLAS SUMKAY SENIOR H 220 00:52:11 05:07 11.73
400 7193 MAXIME HERBETOT SENIOR H 221 00:52:12 05:07 11.72
401 7498 PIERRE DARMONT VETERAN 1 83 00:52:21 05:08 11.69
402 7274 PASCAL DAL FARRA VETERAN 1 84 00:52:22 05:08 11.69
403 3247 CÉLINE GESTER SENIOR D 20 00:52:23 05:08 11.68
404 7179 FABRICE MASSCHELEN VETERAN 1 85 00:52:24 05:08 11.68
405 7384 FREDERIC PLUMIER VETERAN 1 86 00:52:26 05:08 11.67
406 3415 MANON VANDENSAVEL SENIOR D 21 00:52:28 05:09 11.66
407 7178 MOHAMED ABDELMOUN SENIOR H 222 00:52:28 05:09 11.66
408 3290 SIMON LAFLEUR ESPOIR H 25 00:52:33 05:09 11.65
409 3209 VINCENT DELCHAMBRE VETERAN 1 87 00:52:34 05:09 11.64
410 3190 ISABELLE COUVRUER AINÉE 1 7 00:52:34 05:09 11.64
411 3392 GIANNI RUOSO VETERAN 1 88 00:52:35 05:09 11.64
412 7765 STEPHANE JASPART VETERAN 1 89 00:52:38 05:10 11.63
413 7558 VINCENT COMITO SENIOR H 223 00:52:42 05:10 11.61
414 3299 KÉVIN LAMBERT SENIOR H 224 00:52:44 05:10 11.61
415 7798 ROMAIN FERRI SENIOR H 225 00:52:45 05:10 11.60
416 7136 JORDAN VERLAINE SENIOR H 226 00:52:48 05:11 11.59
417 7486 ROGER SCHIFANO VETERAN 1 90 00:52:48 05:11 11.59
418 7206 FABRICE WILLEM VETERAN 1 91 00:52:50 05:11 11.58
419 7209 THOMAS MAGNUM SENIOR H 227 00:52:50 05:11 11.58
420 3398 DAVID SMITS VETERAN 1 92 00:52:50 05:11 11.58
421 7020 PIERRE OGER VETERAN 1 93 00:52:51 05:11 11.58
422 87 XUAN-MAI TRAN AINÉE 1 8 00:52:51 05:11 11.58
423 3272 NATHALIE JAA AINÉE 1 9 00:52:55 05:11 11.57
424 7166 MATTHIEU MOOR SENIOR H 228 00:52:56 05:11 11.56
425 7308 SARAH LEQUEUX SENIOR D 22 00:53:01 05:12 11.54
426 7250 BERTRAND JANNE SENIOR H 229 00:53:03 05:12 11.54
427 7781 JEREMY GILSON SENIOR H 230 00:53:04 05:12 11.53
428 7244 NAZMI BAJRAMI ESPOIR H 26 00:53:04 05:12 11.53
429 7751 THOMAS FIRRE SENIOR H 231 00:53:06 05:12 11.53
430 7509 DOMINIQUE DEWEZ VÉTÉRAN 2 32 00:53:11 05:13 11.51
431 7120 GIUSEPPE PALUMBO VETERAN 1 94 00:53:11 05:13 11.51
432 7582 JEREMIE BONTEMPI SENIOR H 232 00:53:12 05:13 11.50
433 77 NATHALIE STEIMES AINÉE 1 10 00:53:14 05:13 11.50
434 7095 FRANÇOIS LEGRAND SENIOR H 233 00:53:18 05:14 11.48
435 7195 BERNARD DELHOUGNE VÉTÉRAN 2 33 00:53:19 05:14 11.48
436 7578 PASCALE HEYMANS AINÉE 2 1 00:53:20 05:14 11.48
437 3055 LAURA SAUVAGE SENIOR D 23 00:53:20 05:14 11.48
438 7119 BALDASSARE DOCCIMASCOLO VETERAN 1 95 00:53:22 05:14 11.47
439 3147 MICHAEL DIDONE VETERAN 1 96 00:53:22 05:14 11.47
440 7572 GUILLAUME GOOSSE SENIOR H 234 00:53:27 05:14 11.45
441 7402 CHRISTIAN DERKENNE VÉTÉRAN 2 34 00:53:27 05:14 11.45
442 7212 FABIAN GREGOOR VETERAN 1 97 00:53:32 05:15 11.43
443 7762 BENJAMIN BEAUDUIN ESPOIR H 27 00:53:32 05:15 11.43
444 3013 KÉVIN MABEYT SENIOR H 235 00:53:33 05:15 11.43
445 7029 NICOLAS LHOEST SENIOR H 236 00:53:33 05:15 11.43
446 7580 SIMON MOTCH SENIOR H 237 00:53:34 05:15 11.43
447 3043 FLORENCE JORIS SENIOR D 24 00:53:37 05:15 11.41
448 7087 PHILIPPE LOBET VETERAN 1 98 00:53:37 05:15 11.41
449 3318 PATRICE LIBON VETERAN 1 99 00:53:37 05:15 11.41
450 7443 SARAH VERJANS SENIOR D 25 00:53:38 05:15 11.41
451 7327 FABRICE LECLERCQ SENIOR H 238 00:53:39 05:16 11.41
452 7172 ARNAUD SARTELET SENIOR H 239 00:53:39 05:16 11.41
453 7123 BERNARD DE COCQURAU VETERAN 1 100 00:53:39 05:16 11.41
454 7429 LAURENT KRZEWINSKI VETERAN 1 101 00:53:40 05:16 11.40
455 7040 KIERAN MOMMEN SENIOR H 240 00:53:40 05:16 11.40
456 7053 SEBASTIEN GERARD SENIOR H 241 00:53:41 05:16 11.40
457 3151 JOEL ABSIL VETERAN 1 102 00:53:43 05:16 11.39
458 7280 MARCO D'ANTUONO VETERAN 1 103 00:53:44 05:16 11.39
459 7079 PIERRE WOUTERS VETERAN 1 104 00:53:44 05:16 11.39
460 7065 JEAN-NOËL BASTIN VETERAN 1 105 00:53:52 05:17 11.36
461 7092 ANDRE HOUPRESSE SENIOR H 242 00:53:55 05:17 11.35
462 3090 DANIEL NOKIN VÉTÉRAN 2 35 00:53:56 05:17 11.35
463 7432 GAETAN GODEFROID VÉTÉRAN 2 36 00:53:56 05:17 11.35
464 7373 HUBERT STREEL VÉTÉRAN 2 37 00:53:58 05:17 11.34
465 163 SALVINO D'AMICO VETERAN 1 106 00:53:58 05:17 11.34
466 7094 THIERRY MACKELS VÉTÉRAN 2 38 00:54:01 05:18 11.33
467 7744 ALAIN LARUELLE VÉTÉRAN 2 39 00:54:01 05:18 11.33
468 7042 DAVID STEUCKERS VETERAN 1 107 00:54:02 05:18 11.33
469 7160 DONATO GIGLIA VÉTÉRAN 2 40 00:54:03 05:18 11.32
470 7436 THOMAS JONET SENIOR H 243 00:54:04 05:18 11.32
471 7356 ANTOINE FORTIN SENIOR H 244 00:54:08 05:18 11.31
472 7318 FRANCIS TOMBALLE VÉTÉRAN 2 41 00:54:09 05:19 11.30
473 7011 FREDERIC MEUNIER SENIOR H 245 00:54:10 05:19 11.30
474 3230 VALÉRIE DURELLO SENIOR D 26 00:54:11 05:19 11.29
475 66 PIERRE LEFORT VETERAN 1 108 00:54:12 05:19 11.29
476 3028 LOÏC FABRE ESPOIR H 28 00:54:12 05:19 11.29
477 3329 FANNY MARCHAL SENIOR D 27 00:54:13 05:19 11.29
478 7453 JEAN DESIAPEL ESPOIR H 29 00:54:13 05:19 11.29
479 3274 JULIEN JADOT SENIOR H 246 00:54:14 05:19 11.28
480 7400 PIERRE HALLEUX VETERAN 1 109 00:54:16 05:19 11.28
481 7325 JEROME PASQUIERS VÉTÉRAN 2 42 00:54:17 05:19 11.27
482 7492 BORIS MOULET SENIOR H 247 00:54:21 05:20 11.26
483 7293 MATHIEU MEJTDAC SENIOR H 248 00:54:22 05:20 11.26
484 7785 FREDERIC DE CECCO VETERAN 1 110 00:54:23 05:20 11.25
485 3391 JUSTINE ROSKAM SENIOR D 28 00:54:25 05:20 11.25
486 7452 EMMANUEL THYSSEN VETERAN 1 111 00:54:27 05:20 11.24
487 7050 ANNE VANBRABANT SENIOR D 29 00:54:27 05:20 11.24
488 7405 SOPHIE DEGEE SENIOR D 30 00:54:29 05:20 11.23
489 7257 GERALDINE DEGLER SENIOR D 31 00:54:29 05:20 11.23
490 7722 GAEL DOERANE ESPOIR H 30 00:54:34 05:21 11.22
491 7312 DIMITRI MODAERT VETERAN 1 112 00:54:37 05:21 11.21
492 3336 HUGO MERST <16 H 6 00:54:39 05:21 11.20
493 7737 MARTIN BESONHE SENIOR H 249 00:54:39 05:21 11.20
494 3335 CHARLY MERST SENIOR H 250 00:54:41 05:22 11.19
495 3187 CINDY COLLARD AINÉE 1 11 00:54:41 05:22 11.19
496 3295 LUCAS LAMATTINA <12 H 1 00:54:42 05:22 11.19
497 7010 AURELIE DETRY AINÉE 1 12 00:54:45 05:22 11.18
498 7007 GAUDRIC MALHERBE SENIOR H 251 00:54:46 05:22 11.17
499 3208 AXEL DELCHAMBRE VETERAN 1 113 00:54:47 05:22 11.17
500 7701 MICHAEL WERY VETERAN 1 114 00:54:48 05:22 11.17
501 7286 VINCENT TRUSCIA VETERAN 1 115 00:54:49 05:22 11.16
502 7284 GAETANA NEARNO AINÉE 1 13 00:54:49 05:22 11.16
503 7076 JEREMIE TIXHON SENIOR H 252 00:54:50 05:23 11.16
504 3104 CHRISTOPHE MUSIAUX SENIOR H 253 00:54:51 05:23 11.16
505 7222 WILLIAM GRISARD SENIOR H 254 00:54:56 05:23 11.14
506 7587 LOIC ALGOET SENIOR H 255 00:54:56 05:23 11.14
507 3412 JEAN TIMMERMANN SENIOR H 256 00:54:56 05:23 11.14
508 7196 LAURA DESSARD SENIOR D 32 00:54:58 05:23 11.13
509 3316 OLIVIER LESAGE SENIOR H 257 00:54:58 05:23 11.13
510 3216 OLIVIER DETAILLE VETERAN 1 116 00:54:58 05:23 11.13
511 7323 DIANA GAIOTTI AINÉE 2 2 00:54:59 05:23 11.13
512 7132 FLORINE STRAAT SENIOR D 33 00:55:00 05:24 11.13
513 7345 ALLISSON HANS SENIOR D 34 00:55:02 05:24 11.12
514 7471 JULIEN ROUSSELLE SENIOR H 258 00:55:03 05:24 11.12
515 7346 VINCENT FRERE VETERAN 1 117 00:55:05 05:24 11.11
516 7187 ALEX RASSCHAERT SENIOR H 259 00:55:14 05:25 11.08
517 3032 SIMON JAMOULLE ESPOIR H 31 00:55:18 05:25 11.07
518 7235 PIERRE JANSSIS SENIOR H 260 00:55:20 05:25 11.06
519 129 CAROLINE MERTENS SENIOR D 35 00:55:22 05:26 11.05
520 7127 CLAUDY GILLON VÉTÉRAN 2 43 00:55:22 05:26 11.05
521 7171 SYLVAIN VAN ROY SENIOR H 261 00:55:23 05:26 11.05
522 3023 CYRIL BAGUETTE ESPOIR H 32 00:55:25 05:26 11.04
523 7342 GREGORY TRATSAERT SENIOR H 262 00:55:26 05:26 11.04
524 7483 MARTINE DERROITTE SENIOR H 263 00:55:26 05:26 11.04
525 7271 ANNE CHARLOTIAUX AINÉE 1 14 00:55:27 05:26 11.04
526 7712 VINCENT ANTHOONS VETERAN 1 118 00:55:27 05:26 11.04
527 62 ARNAUD PATOUT SENIOR H 264 00:55:27 05:26 11.04
528 7780 GEOFFREY JAMAR VETERAN 1 119 00:55:28 05:26 11.03
529 7479 ROMUALD DENEVMOSTIER SENIOR H 265 00:55:29 05:26 11.03
530 3388 PAOLO ROMANELLI VÉTÉRAN 2 44 00:55:31 05:27 11.02
531 7742 DOMINIQUE DELVA VÉTÉRAN 2 45 00:55:32 05:27 11.02
532 7787 NICOLAS GUSTIN SENIOR H 266 00:55:32 05:27 11.02
533 7361 FABRICE BERTRAND VETERAN 1 120 00:55:32 05:27 11.02
534 7461 SACHA MARTIN <12 H 2 00:55:34 05:27 11.01
535 3126 OLIVIER BEAUJEAN VETERAN 1 121 00:55:37 05:27 11.00
536 7054 PASCAL MAHAUX VÉTÉRAN 2 46 00:55:39 05:27 11.00
537 60 FABRICE PETERS VETERAN 1 122 00:55:40 05:27 10.99
538 3404 THIERRY TASIAUX VÉTÉRAN 2 47 00:55:40 05:27 10.99
539 3234 CHRISTIAN FIRRE VETERAN 1 123 00:55:42 05:28 10.99
540 3130 LAMBRINY PHILIS AINÉE 1 15 00:55:43 05:28 10.98
541 3210 VALÉRIE DELCOMMINETTE SENIOR D 36 00:55:43 05:28 10.98
542 7473 LAURENT DISPAS VETERAN 1 124 00:55:44 05:28 10.98
543 7565 CHRISTOPHE GERARD SENIOR H 267 00:55:45 05:28 10.98
544 7462 RENAUD MARTIN VETERAN 1 125 00:55:47 05:28 10.97
545 3389 QUENTIN ROMANELLI SENIOR H 268 00:55:47 05:28 10.97
546 7497 HAMZA ECHALLAOUI SENIOR H 269 00:55:48 05:28 10.97
547 7176 VALERIE ALBART SENIOR D 37 00:55:52 05:29 10.95
548 3041 ELIOTT VANOLANDE ESPOIR H 33 00:55:55 05:29 10.94
549 3035 MARIE LEMAHIEU SENIOR D 38 00:55:56 05:29 10.94
550 7704 DENIS DESTREE VÉTÉRAN 2 48 00:55:57 05:29 10.94
551 7715 MICHAEL DE CECCO VETERAN 1 126 00:56:03 05:30 10.92
552 3056 PHILIPPE LESCRENIER VETERAN 1 127 00:56:05 05:30 10.91
553 11 ANNICK BOSSELOIR AINÉE 1 16 00:56:05 05:30 10.91
554 3237 AUBIN FORGET <12 H 3 00:56:05 05:30 10.91
555 3344 NICOLAS MOREELS SENIOR H 270 00:56:06 05:30 10.91
556 7716 DIEGO PEREZ ESPOIR H 34 00:56:08 05:30 10.90
557 7571 CEDRIC INAMA SENIOR H 271 00:56:08 05:30 10.90
558 3220 ROBIN DONNÉ SENIOR H 272 00:56:08 05:30 10.90
559 7458 LUC BAILLY VÉTÉRAN 2 49 00:56:10 05:30 10.90
560 7459 FRANCOISE HARTKOPF AINÉE 2 3 00:56:10 05:30 10.90
561 7740 STEPHANIE MOTTEN SENIOR D 39 00:56:11 05:30 10.89
562 7502 MANU WILMET VETERAN 1 128 00:56:13 05:31 10.89
563 7185 QUENTIN SCHELFHOUT SENIOR H 273 00:56:14 05:31 10.88
564 7328 PASCAL WOTRON VÉTÉRAN 2 50 00:56:14 05:31 10.88
565 3076 PASCAL LESSAGE VETERAN 1 129 00:56:17 05:31 10.87
566 7422 SAMUEL SURENUS ESPOIR H 35 00:56:18 05:31 10.87
567 7421 EMMA RORIVE ESPOIR D 2 00:56:18 05:31 10.87
568 7477 YANNICK THONET SENIOR H 274 00:56:18 05:31 10.87
569 3355 OLIVIER PAILHE SENIOR H 275 00:56:19 05:31 10.87
570 3283 JULIEN KETELSLEGERS SENIOR H 276 00:56:19 05:31 10.87
571 3073 EVA ROBINET SENIOR D 40 00:56:19 05:31 10.87
572 7790 TONY TAYENNE ESPOIR H 36 00:56:22 05:32 10.86
573 7302 ERIC FRISON VETERAN 1 130 00:56:24 05:32 10.85
574 7246 YVAN KAN <16 H 7 00:56:26 05:32 10.84
575 7024 RENAUD GASPARD SENIOR H 277 00:56:27 05:32 10.84
576 147 PIERRE DRIESSENS VÉTÉRAN 4 1 00:56:30 05:32 10.83
577 3394 JEAN-FRANÇOIS SAWENNE VETERAN 1 131 00:56:32 05:33 10.83
578 7478 SOPHIE HALLEUX AINÉE 1 17 00:56:35 05:33 10.82
579 3356 FRANCOIS PALOMO AINÉE 2 4 00:56:35 05:33 10.82
580 3179 HENRIK CAUZ SENIOR H 278 00:56:42 05:34 10.79
581 92 FLORIANE DEFAYS SENIOR D 41 00:56:44 05:34 10.79
582 7100 OLIVIER MESTDAG VÉTÉRAN 2 51 00:56:44 05:34 10.79
583 3222 DAVID DRIANNE SENIOR H 279 00:56:45 05:34 10.78
584 3161 JÉRÔME BEGUIN SENIOR H 280 00:56:46 05:34 10.78
585 3171 OLIVIER BRIEN VETERAN 1 132 00:56:48 05:34 10.77
586 7441 EDDY CHABOT VETERAN 1 133 00:56:48 05:34 10.77
587 3193 LAURENT CROYE SENIOR H 281 00:56:49 05:34 10.77
588 7046 JEAN-MARIE FANIEL VÉTÉRAN 2 52 00:56:50 05:34 10.77
589 7749 SIMON GERARD VETERAN 1 134 00:56:51 05:34 10.77
590 109 HERVÉ HANUSSEK SENIOR H 282 00:56:52 05:35 10.76
591 7086 MARIE LESSIRE SENIOR D 42 00:56:53 05:35 10.76
592 7030 OLIVIER THOMAS VETERAN 1 135 00:56:58 05:35 10.74
593 3087 VALERIE OURY SENIOR D 43 00:57:01 05:35 10.73
594 7241 DENIS DEVIVIER XXX   00:57:02 05:35 10.73
595 55 FABRICE RONCATO SENIOR H 283 00:57:03 05:36 10.73
596 3037 OLIVIER LEYS SENIOR H 284 00:57:06 05:36 10.72
597 7228 JEROME DENEUMOSTIER SENIOR H 285 00:57:08 05:36 10.71
598 7233 FABRICE YANS VETERAN 1 136 00:57:08 05:36 10.71
599 134 OLIVIER JACQUIN VETERAN 1 137 00:57:09 05:36 10.71
600 7146 GAEL JADIN SENIOR H 286 00:57:12 05:36 10.70
601 7255 MARC FLORKIN SENIOR H 287 00:57:14 05:37 10.69
602 2888 PHILIPPE GASPAR VETERAN 1 138 00:57:14 05:37 10.69
603 7517 SOPHIE DEMOIME SENIOR D 44 00:57:15 05:37 10.69
604 7309 LIESBETH MANTELEERS AINÉE 1 18 00:57:17 05:37 10.68
605 7088 LUCIE FONTAINE SENIOR D 45 00:57:18 05:37 10.68
606 7577 CHRISTOPHER GAUTHY SENIOR H 288 00:57:23 05:38 10.67
607 7611 DAVID FRISON VETERAN 1 139 00:57:23 05:38 10.67
608 3027 CHLOÉ DE COCK ESPOIR D 3 00:57:24 05:38 10.66
609 149 CALOGERO MAURO VÉTÉRAN 4 2 00:57:25 05:38 10.66
610 7059 LAURELINE BARON SENIOR D 46 00:57:26 05:38 10.66
611 7252 BERENGERE NINANE SENIOR D 47 00:57:31 05:38 10.64
612 7251 CHARLOTTE GREGOIRE SENIOR D 48 00:57:31 05:38 10.64
613 7763 TONY TAYENNE ESPOIR H 37 00:57:39 05:39 10.62
614 7771 LAETITIA FOIS AINÉE 1 19 00:57:40 05:39 10.61
615 3270 ISABELLE HUBERT AINÉE 1 20 00:57:41 05:39 10.61
616 7168 ANGELA DEL GIUDICE SENIOR D 49 00:57:43 05:40 10.60
617 3429 FRÉDÉRIC VRANKEN VETERAN 1 140 00:57:45 05:40 10.60
618 3268 FREDERIC HENROTAY VETERAN 1 141 00:57:45 05:40 10.60
619 3163 ADRIEN BERTRAND SENIOR H 289 00:57:46 05:40 10.59
620 7403 JEREMY LARUELLE SENIOR H 290 00:57:48 05:40 10.59
621 7025 LOUIS THIRION SENIOR H 291 00:57:48 05:40 10.59
622 7156 VERO SOWA AINÉE 1 21 00:57:49 05:40 10.59
623 7556 AUDREY BALDEWYNS SENIOR D 50 00:57:51 05:40 10.58
624 7004 SOPHIE MCHIELS SENIOR D 51 00:57:52 05:40 10.58
625 3328 BORIS MAILLARD SENIOR H 292 00:57:52 05:40 10.58
626 7447 NATHALIE THION AINÉE 1 22 00:57:55 05:41 10.57
627 7511 SEBASTIEN COP SENIOR H 293 00:57:57 05:41 10.56
628 7490 STEVE BOWGE SENIOR H 294 00:57:59 05:41 10.55
629 7027 LISIANNE FIEVEZ SENIOR D 52 00:58:01 05:41 10.55
630 7184 JEROME SCHUNACHER SENIOR H 295 00:58:02 05:41 10.55
631 3128 ANICK FELTRIN AINÉE 2 5 00:58:02 05:41 10.55
632 7768 MARIE BERTRAND SENIOR D 53 00:58:03 05:41 10.54
633 80 BERNARD FERNANDEZ HERRERA VETERAN 1 142 00:58:04 05:42 10.54
634 3071 NATHALIE HOUTHOOFDT AINÉE 2 6 00:58:05 05:42 10.54
635 7409 PATRICK TURINE SENIOR H 296 00:58:05 05:42 10.54
636 7279 CHARLOTTE DONNEUX SENIOR D 54 00:58:05 05:42 10.54
637 7767 AURÉLIE BAEKE SENIOR D 55 00:58:06 05:42 10.53
638 7164 MARTINE PAQUOT AINÉE 2 7 00:58:07 05:42 10.53
639 7725 CEDRIC BREHL SENIOR H 297 00:58:08 05:42 10.53
640 7230 THEO LEONET ESPOIR H 38 00:58:12 05:42 10.52
641 7057 GUILLAUME LALOUX SENIOR H 298 00:58:13 05:42 10.51
642 7408 GEOFFREY EBROIN SENIOR H 299 00:58:15 05:43 10.51
643 3108 VINCENT HENRARD VÉTÉRAN 2 53 00:58:24 05:44 10.48
644 3403 FABRICE SWERDTFEGERS VETERAN 1 143 00:58:29 05:44 10.46
645 7114 FRANCISCO DANIELNAVARRO VETERAN 1 144 00:58:29 05:44 10.46
646 7317 NATHAN DEWAELE ESPOIR H 39 00:58:30 05:44 10.46
647 7099 VICTOR MESTDAG ESPOIR H 40 00:58:30 05:44 10.46
648 7202 MARIE RUISSEAU SENIOR D 56 00:58:31 05:44 10.46
649 7165 STÉPHANIE CARLY SENIOR D 57 00:58:34 05:45 10.45
650 7190 VERONIQUE HEINE AINÉE 1 23 00:58:35 05:45 10.45
651 3257 DELPHINE GRAFF SENIOR D 58 00:58:36 05:45 10.44
652 3367 FLORIAN PIERRE SENIOR H 300 00:58:36 05:45 10.44
653 7219 KENNETH PETIT SENIOR H 301 00:58:38 05:45 10.44
654 7415 XAVIER ALTOMARE SENIOR H 302 00:58:42 05:45 10.43
655 3182 DOMINIQUE CHRETIEN AINÉE 2 8 00:58:46 05:46 10.41
656 7336 NATHANAEL DEMEFFE SENIOR H 303 00:58:47 05:46 10.41
657 7726 LUCIA GANASSIN AINÉE 2 9 00:58:48 05:46 10.41
658 7499 MARGOT PIRARD SENIOR D 59 00:58:49 05:46 10.41
659 3115 NADIA SPANO SENIOR D 60 00:58:50 05:46 10.40
660 3269 XAVIER HENROTIN SENIOR H 304 00:58:50 05:46 10.40
661 3409 ETIENNE THIRY VETERAN 3 12 00:58:54 05:46 10.39
662 3005 LAURA STRASEK SENIOR D 61 00:58:58 05:47 10.38
663 3281 CHRISTOPHE KERSTEENS VETERAN 1 145 00:59:03 05:47 10.36
664 7482 CHARLOTTE HARDENNE SENIOR D 62 00:59:03 05:47 10.36
665 7512 ASTRID LEGRAND SENIOR D 63 00:59:05 05:48 10.36
666 7249 ALEXANDRE GERARD SENIOR H 305 00:59:06 05:48 10.36
667 7275 LUDOVIC MOSSOUX VETERAN 1 146 00:59:08 05:48 10.35
668 3383 BENOIT RENARD VETERAN 1 147 00:59:12 05:48 10.34
669 3309 AMELIE LENEFFE SENIOR D 64 00:59:17 05:49 10.32
670 7776 JULIEN MAHIN SENIOR H 306 00:59:22 05:49 10.31
671 7016 RINA PORCELLI AINÉE 2 10 00:59:23 05:49 10.31
672 7188 PIERRE BOURGUIGNON VÉTÉRAN 2 54 00:59:23 05:49 10.31
673 7476 LAURA COMITO AINÉE 1 24 00:59:25 05:50 10.30
674 7385 FRANCOIS GIROULLE SENIOR H 307 00:59:27 05:50 10.29
675 7374 PIERRE TRILLET SENIOR H 308 00:59:29 05:50 10.29
676 3039 JUSTIN PIRARD ESPOIR H 41 00:59:30 05:50 10.29
677 7764 ALESSIO TODDE SENIOR H 309 00:59:31 05:50 10.28
678 7747 NICOLAS LIGOT SENIOR H 310 00:59:31 05:50 10.28
679 7170 AURELIE VANDEBERG SENIOR D 65 00:59:32 05:50 10.28
680 7723 TANGUY ORBAN SENIOR H 311 00:59:32 05:50 10.28
681 3050 CHRISTELLE DELVAUX SENIOR D 66 00:59:33 05:50 10.28
682 7180 SIMON LENEFFE SENIOR H 312 00:59:34 05:50 10.27
683 7364 RUDI BONVARLEZ VÉTÉRAN 2 55 00:59:37 05:51 10.27
684 7739 NICOLAS PARENT SENIOR H 313 00:59:37 05:51 10.27
685 7613 VALENTINE LEROUX SENIOR D 67 00:59:39 05:51 10.26
686 3418 LUCIE VANROY SENIOR D 68 00:59:41 05:51 10.25
687 7444 GUILLAUME CHASSEUR SENIOR H 314 00:59:42 05:51 10.25
688 7113 LUDWIG LECRENIER ESPOIR H 42 00:59:44 05:51 10.25
689 7489 LEON SELECK ESPOIR H 43 00:59:47 05:52 10.24
690 7225 PASCAL GENICOT VÉTÉRAN 2 56 00:59:54 05:52 10.22
691 7714 CATHERINE SCHOFFENIELS SENIOR D 69 00:59:58 05:53 10.21
692 7382 GAETAN PLAS SENIOR H 315 00:59:59 05:53 10.20
693 3153 JEAN-FRANÇOIS ALBALA SENIOR H 316 01:00:00 05:53 10.20
694 7523 ALINE RENARD SENIOR D 70 01:00:04 05:53 10.19
695 7376 JULIEN WINANT SENIOR H 317 01:00:05 05:53 10.19
696 3354 NATACHA PAGANELLI SENIOR D 71 01:00:06 05:54 10.18
697 3252 GILLES NIGOT SENIOR H 318 01:00:07 05:54 10.18
698 7375 JEAN-PIERRE WINANT VETERAN 3 13 01:00:07 05:54 10.18
699 7741 MARTINE JANIAK SENIOR D 72 01:00:12 05:54 10.17
700 7017 AMANDINE DELFOSSE SENIOR D 73 01:00:16 05:55 10.15
701 3159 CINDY ANTONELLI SENIOR D 74 01:00:18 05:55 10.15
702 7256 AGNES COLLIN AINÉE 2 11 01:00:19 05:55 10.15
703 7039 SANXI MOMMEN SENIOR H 319 01:00:21 05:55 10.14
704 7161 FRANK HOULMONT VETERAN 1 148 01:00:25 05:55 10.13
705 7078 GAETAN LHOEST SENIOR H 320 01:00:29 05:56 10.12
706 5 RICHARD MATHOT VETERAN 3 14 01:00:31 05:56 10.11
707 7214 FABIENNE NYSSEN AINÉE 1 25 01:00:33 05:56 10.11
708 3099 LAURENT DUC SENIOR H 321 01:00:35 05:56 10.10
709 7117 MARGOT GOESSENS <16 D 1 01:00:42 05:57 10.08
710 7138 JÉRÉMY DUTRIEWICZ SENIOR H 322 01:00:43 05:57 10.08
711 7239 ESTHER BLEYS SENIOR D 75 01:00:44 05:57 10.08
712 7389 QUENTIN PETERS ESPOIR H 44 01:00:47 05:58 10.07
713 3227 LAURENCE DUPONT AINÉE 1 26 01:00:49 05:58 10.06
714 7090 LOIC BORSU SENIOR H 323 01:00:49 05:58 10.06
715 7089 SARAH RESPEN SENIOR D 76 01:00:50 05:58 10.06
716 3334 MANUEL MAZZOCCO SENIOR H 324 01:00:50 05:58 10.06
717 7002 STEPHANE HENRARD VÉTÉRAN 2 57 01:00:50 05:58 10.06
718 7148 MAUD BRASSART SENIOR D 77 01:00:51 05:58 10.06
719 3219 ANNE DEVROY AINÉE 2 12 01:00:56 05:58 10.04
720 7061 SUZANNE SCHUERMANS AINÉE 2 13 01:01:01 05:59 10.03
721 7292 DIDIER WEGIMONT VETERAN 1 149 01:01:03 05:59 10.02
722 7576 CATHERINE FOSSEPRE SENIOR D 78 01:01:04 05:59 10.02
723 7575 JONATHAN LAFOSSE SENIOR H 325 01:01:04 05:59 10.02
724 7060 PIERRE LOUIS VETERAN 1 150 01:01:05 05:59 10.02
725 3124 JOHAN GRAINDORGE VETERAN 1 151 01:01:06 05:59 10.02
726 7149 AXELLE BOLLY SENIOR D 79 01:01:07 06:00 10.01
727 7183 CYRIELLE DETMIER SENIOR D 80 01:01:17 06:00 9.99
728 7142 JULIE LOPEZ SENIOR D 81 01:01:17 06:00 9.99
729 7231 ARNAUD WARSEE ESPOIR H 45 01:01:17 06:00 9.99
730 7182 CELIA DETMIER SENIOR D 82 01:01:17 06:00 9.99
731 3060 ANNE WILLEQUET AINÉE 1 27 01:01:17 06:00 9.99
732 191 HENRI ROBERTI VETERAN 3 15 01:01:18 06:01 9.98
733 7338 MATHIEU FANTIN SENIOR H 326 01:01:21 06:01 9.98
734 7377 KATHY SKILBECQ AINÉE 2 14 01:01:22 06:01 9.97
735 7077 XXX XXX   01:01:30 06:02 9.95
736 7334 AMANDINE LANGE SENIOR D 83 01:01:31 06:02 9.95
737 7216 FRANCO GRANIERZI VETERAN 1 152 01:01:31 06:02 9.95
738 7215 PATRICE HOULLEZ VÉTÉRAN 2 58 01:01:33 06:02 9.94
739 7718 ALAIN NOISET VETERAN 3 16 01:01:37 06:02 9.93
740 7265 CLAUDE LARMINIER VETERAN 3 17 01:01:44 06:03 9.91
741 7721 LAURENCE CLEMENT AINÉE 1 28 01:01:44 06:03 9.91
742 7205 CYRILLE BAUM VETERAN 3 18 01:01:45 06:03 9.91
743 7522 FLORENCE RENARD SENIOR D 84 01:01:50 06:04 9.90
744 3226 VALÉRIE DUCHESNE AINÉE 1 29 01:01:56 06:04 9.88
745 7150 NATACHA HOEBREGHTS SENIOR D 85 01:02:00 06:05 9.87
746 7066 OLIVIA SIENAERT AINÉE 1 30 01:02:02 06:05 9.87
747 7337 GAETAN COURTIN SENIOR H 327 01:02:03 06:05 9.86
748 7514 RACHEL GRISENDI SENIOR D 86 01:02:06 06:05 9.86
749 7513 NICOLAS HUART SENIOR H 328 01:02:07 06:05 9.85
750 7568 LOIC MARECHAL SENIOR H 329 01:02:08 06:05 9.85
751 3343 LAURANE MONTULET ESPOIR D 4 01:02:12 06:06 9.84
752 7481 ANTHONY WILLAUME SENIOR H 330 01:02:13 06:06 9.84
753 3168 CYRIL BOUCHAT SENIOR H 331 01:02:16 06:06 9.83
754 7321 VIRGINIE REINDERS SENIOR D 87 01:02:18 06:06 9.82
755 7391 STEPHANE DEROT SENIOR H 332 01:02:18 06:06 9.82
756 3327 CARINE MAGE AINÉE 2 15 01:02:21 06:07 9.82
757 3248 STÉPHANE GEYS SENIOR H 333 01:02:22 06:07 9.81
758 3381 GEORGES REINDERS VETERAN 3 19 01:02:23 06:07 9.81
759 3232 LOÏC EVANS SENIOR H 334 01:02:33 06:08 9.78
760 138 MARIE-CLAUDE CHAGNON AINÉE 2 16 01:02:35 06:08 9.78
761 3386 AUDREY ROGGE SENIOR D 88 01:02:36 06:08 9.78
762 7521 VINCENT GROVEN SENIOR H 335 01:02:37 06:08 9.77
763 7727 ISABELLE DENIS AINÉE 1 31 01:02:38 06:08 9.77
764 3038 LOUISE NYSSEN SENIOR D 89 01:02:39 06:09 9.77
765 7236 STEPHANIE PEREZ SENIOR D 90 01:02:41 06:09 9.76
766 7287 FREDERIC COLLARD VETERAN 1 153 01:02:46 06:09 9.75
767 7792 MARTIN KELLETER ESPOIR H 46 01:02:48 06:09 9.75
768 234 THIERRY KALIN VETERAN 1 154 01:02:51 06:10 9.74
769 3150 BENOÎT ABRASSART VETERAN 1 155 01:02:56 06:10 9.72
770 7240 ROMANE BLEYS SENIOR D 91 01:02:58 06:10 9.72
771 3311 SARAH LENEFFE SENIOR D 92 01:02:59 06:10 9.72
772 3387 MAXIME ROISIN SENIOR H 336 01:02:59 06:10 9.72
773 7469 MARINE DELHALLE SENIOR D 93 01:03:00 06:11 9.71
774 7470 DRISS FABRY SENIOR H 337 01:03:01 06:11 9.71
775 3136 RUDY MORTELÉ VÉTÉRAN 2 59 01:03:06 06:11 9.70
776 75 DIDIER CLOSSET VETERAN 1 156 01:03:07 06:11 9.70
777 7746 MINA FRACCARI AINÉE 1 32 01:03:13 06:12 9.68
778 7488 CIRO CAMPISI VÉTÉRAN 2 60 01:03:14 06:12 9.68
779 3374 LAURENT POUSSEUR VETERAN 1 157 01:03:21 06:13 9.66
780 7579 ROMUALD DENEUMOSTIER SENIOR H 338 01:03:22 06:13 9.66
781 3425 LUDOVIC VELZ SENIOR H 339 01:03:24 06:13 9.65
782 7586 MARION DENIS SENIOR D 94 01:03:27 06:13 9.65
783 7585 COLIN SONCK SENIOR H 340 01:03:27 06:13 9.65
784 7793 CLEMENT LAMBOTTE SENIOR H 341 01:03:28 06:13 9.64
785 3382 ANNETTE REMY AINÉE 1 33 01:03:38 06:14 9.62
786 7524 LOUISE DUMONT SENIOR D 95 01:03:39 06:14 9.62
787 7745 MARTIN WOZNIAK SENIOR H 342 01:03:39 06:14 9.62
788 7557 MARC HAGELSTEENS VETERAN 1 158 01:03:39 06:14 9.62
789 3349 LAURELINE NICOLAS SENIOR D 96 01:03:39 06:14 9.62
790 3160 CATHERINE ARNOLIS SENIOR D 97 01:03:47 06:15 9.59
791 3313 JONATHAN LEROY SENIOR H 343 01:03:54 06:16 9.58
792 3241 GEOFFREY GALÈRE VETERAN 1 159 01:03:55 06:16 9.57
793 7392 NOELIE RENARD VÉTÉRAN 2 61 01:03:58 06:16 9.57
794 3167 PIERRE-YVES BOLEN VETERAN 1 160 01:03:59 06:16 9.56
795 3410 DENIS THOMAS SENIOR H 344 01:04:00 06:16 9.56
796 3095 MADISON SPRIMONT SENIOR D 98 01:04:02 06:17 9.56
797 7220 MAXIME GERARD SENIOR H 345 01:04:07 06:17 9.55
798 3196 MATHIAS DAL MASO SENIOR H 346 01:04:08 06:17 9.54
799 7438 JADE DAMOISAUX-DELNOY SENIOR D 99 01:04:09 06:17 9.54
800 7503 IRIS DAMOISEAUX-DELNOY SENIOR D 100 01:04:10 06:17 9.54
801 3152 JEAN-MICHEL AELBERTS VETERAN 1 161 01:04:10 06:17 9.54
802 3414 MORGANE VANDE VIJVER SENIOR D 101 01:04:11 06:18 9.54
803 3371 BENJAMIN PIROTTE SENIOR H 347 01:04:11 06:18 9.54
804 7314 BERNARD JEUSETTE VÉTÉRAN 2 62 01:04:16 06:18 9.52
805 7238 LAURALINE MICHEL SENIOR D 102 01:04:16 06:18 9.52
806 3427 LÉO VIATOUR <16 H 8 01:04:17 06:18 9.52
807 3242 ADELINE GALLET SENIOR D 103 01:04:17 06:18 9.52
808 7081 RUDE DOCQUIER VÉTÉRAN 2 63 01:04:18 06:18 9.52
809 3385 LAURIE RENARD SENIOR D 104 01:04:19 06:18 9.52
810 3305 ANTHONY LAROCK SENIOR H 348 01:04:20 06:18 9.51
811 3072 STÉPHANE RIGA VÉTÉRAN 2 64 01:04:22 06:19 9.51
812 7135 KADOUR MOKEDDEN VÉTÉRAN 2 65 01:04:22 06:19 9.51
813 3177 MORGANE CAMPION SENIOR D 105 01:04:25 06:19 9.50
814 3255 LOLA GODFIRNON SENIOR D 106 01:04:25 06:19 9.50
815 7352 BERENGERE WOLK SENIOR D 107 01:04:25 06:19 9.50
816 7351 MARIE WOLK SENIOR D 108 01:04:26 06:19 9.50
817 3157 GEOFFREY ANDRÉ SENIOR H 349 01:04:26 06:19 9.50
818 3401 JEAN-PIERRE STASSE VÉTÉRAN 2 66 01:04:37 06:20 9.47
819 7401 CECILE DEGUELDRE AINÉE 1 34 01:04:38 06:20 9.47
820 7770 XAVIER ROGGEMANS SENIOR H 350 01:04:38 06:20 9.47
821 3428 CLAIRE VOS AINÉE 2 17 01:04:38 06:20 9.47
822 3070 KELLY GRIGNET SENIOR D 109 01:04:40 06:20 9.46
823 7399 PASQUALE BOVE VÉTÉRAN 2 67 01:04:42 06:21 9.46
824 7709 FLORIAN PASQUES <12 H 4 01:04:43 06:21 9.46
825 3245 CLAUDE GEMIS VETERAN 3 20 01:04:45 06:21 9.45
826 7366 SANDRINE SCHMIT AINÉE 1 35 01:04:47 06:21 9.45
827 3162 EMMANUEL BENITEZ SENIOR H 351 01:04:48 06:21 9.44
828 7420 SABRINA GARATE SENIOR D 110 01:04:48 06:21 9.44
829 3057 ROSALIA SAVONA SENIOR D 111 01:04:53 06:22 9.43
830 106 SYLVIE MERCIER AINÉE 1 36 01:04:54 06:22 9.43
831 69 PASCAL JULIN SENIOR H 352 01:05:01 06:22 9.41
832 7559 MANUEL BAIRIN SENIOR H 353 01:05:01 06:22 9.41
833 7357 NICOLAS DEVIVIER SENIOR H 354 01:05:02 06:23 9.41
834 3045 VINCIANE LIESENS AINÉE 1 37 01:05:08 06:23 9.40
835 3044 MARIANNE LAHAYE-GOFFART AINÉE 2 18 01:05:09 06:23 9.39
836 7729 RAPHAEL MARECHAL VETERAN 1 162 01:05:15 06:24 9.38
837 3000 FABIENNE DAINE AINÉE 1 38 01:05:17 06:24 9.37
838 7417 JEAN-DANIEL DEVOS VÉTÉRAN 2 68 01:05:20 06:24 9.37
839 7139 CAMILLE FLAMMANG SENIOR D 112 01:05:22 06:25 9.36
840 7140 ROMUALD WILLEM SENIOR H 355 01:05:22 06:25 9.36
841 7047 ERIC ZEGUERS VÉTÉRAN 2 69 01:05:25 06:25 9.36
842 7347 VIRGINIE PESESSE SENIOR D 113 01:05:27 06:25 9.35
843 7404 LEKEU BRYAN SENIOR H 356 01:05:37 06:26 9.33
844 3351 OGER ALINE SENIOR D 114 01:05:38 06:26 9.32
845 7433 WILEUR INGRID AINÉE 1 39 01:05:38 06:26 9.32
846 3119 BURNAY DAVID SENIOR H 357 01:05:38 06:26 9.32
847 7189 WILMOTTE ANNE AINÉE 2 19 01:05:39 06:26 9.32
848 7748 HENUSET LAURENCE SENIOR D 115 01:05:40 06:26 9.32
849 7394 COLLARD ARIELLE AINÉE 1 40 01:05:41 06:26 9.32
850 7734 PLEWIAK LAURENT VETERAN 1 163 01:05:43 06:27 9.31
851 7570 LAMBERT VINCIANE AINÉE 1 41 01:05:45 06:27 9.31
852 7006 VANDEN BUSSCHE YVETTE AINÉE 2 20 01:05:58 06:28 9.28
853 7378 RAPPE CAROLINE SENIOR D 116 01:06:31 06:31 9.20
854 3025 CHAMPON QUENTIN ESPOIR H 47 01:06:31 06:31 9.20
855 3054 DELVAUX GILLES VETERAN 1 164 01:06:40 06:32 9.18
856 7295 NOUITI HAYAT SENIOR D 117 01:06:47 06:33 9.16
857 7324 BORGS JOSE VETERAN 1 165 01:06:48 06:33 9.16
858 7743 LEROY OLIVIER SENIOR H 358 01:06:57 06:34 9.14
859 3221 DOYE SÉBASTIEN AINÉE 1 42 01:06:58 06:34 9.14
860 7068 MOLLON MANUEL VÉTÉRAN 2 70 01:07:03 06:34 9.13
861 7056 ELAERTS CAROLINE SENIOR D 118 01:07:03 06:34 9.13
862 7167 DROZDZOWSKI CARMEN AINÉE 2 21 01:07:13 06:35 9.10
863 3102 VANBERGEN ROMUALD VÉTÉRAN 2 71 01:07:17 06:36 9.10
864 7614 DAVIVIER KATHLENE SENIOR D 119 01:07:24 06:36 9.08
865 7775 MIGNOLET MURIEL AINÉE 2 22 01:07:29 06:37 9.07
866 7616 ARETINO VIRGINIE AINÉE 1 43 01:07:33 06:37 9.06
867 7615 AOUICNA ANTOINE SENIOR H 359 01:07:34 06:37 9.06
868 7032 DUCAMP JEAN-POL VETERAN 3 21 01:07:36 06:38 9.05
869 7026 FIEVEZ ERIC VÉTÉRAN 2 72 01:07:37 06:38 9.05
870 7058 JOIRET MARGAUX SENIOR D 120 01:07:41 06:38 9.04
871 7155 MERTENS ANNE-MARIE AINÉE 2 23 01:07:42 06:38 9.04
872 7174 TCHEKEROUL ISABELLE AINÉE 1 44 01:07:46 06:39 9.03
873 7051 LECOMTE ALICE SENIOR D 121 01:07:47 06:39 9.03
874 3286 KIMPLAIRE CINDY SENIOR D 122 01:07:48 06:39 9.03
875 7463 CONSTANT STEPHANIE SENIOR D 123 01:07:53 06:39 9.02
876 3110 PUTRONE LAURENCE AINÉE 1 45 01:07:58 06:40 9.00
877 3431 WARNAND ERIC AINÉE 1 46 01:07:58 06:40 9.00
878 7457 LHEUREUX VINCENT VÉTÉRAN 2 73 01:07:58 06:40 9.00
879 3321 LIESSE ANOUCHKA SENIOR D 124 01:08:02 06:40 9.00
880 7769 THONNART PHILIPPE VETERAN 1 166 01:08:03 06:40 8.99
881 3426 VIATOUR ERIC VÉTÉRAN 2 74 01:08:11 06:41 8.98
882 7258 HOYOUX CRISTEL AINÉE 1 47 01:08:14 06:41 8.97
883 7104 ADAM CHRISTELLE AINÉE 1 48 01:08:31 06:43 8.93
884 7105 PRAILLET PASCAL VETERAN 1 167 01:08:32 06:43 8.93
885 7019 REGNIER ELISE SENIOR D 125 01:08:34 06:43 8.93
886 7018 THIRY DAMIEN SENIOR H 360 01:08:34 06:43 8.93
887 3109 LEHAIRE MYRIAM AINÉE 2 24 01:08:35 06:43 8.92
888 7788 GENDEBIEN FREDERIC ESPOIR D 5 01:08:39 06:44 8.91
889 7789 MARTINEZ PABLOS LIZA ESPOIR D 6 01:08:39 06:44 8.91
890 7791 DOEMER SYLVAIN ESPOIR H 48 01:08:39 06:44 8.91
891 3231 ESNAULT ROBIN ESPOIR H 49 01:09:04 06:46 8.86
892 7291 PETIT THOMAS SENIOR H 361 01:09:13 06:47 8.84
893 7290 MALONG GABRIELLE AINÉE 2 25 01:09:13 06:47 8.84
894 7289 JANSSEN JEAN-LUC VETERAN 1 168 01:09:14 06:47 8.84
895 3144 CRANINX PATRICK VÉTÉRAN 2 75 01:09:17 06:48 8.83
896 7264 POLLARA PINO VÉTÉRAN 2 76 01:09:30 06:49 8.81
897 7143 MOULIN FRANÇOISE AINÉE 2 26 01:09:32 06:49 8.80
898 7731 TASSOUL ANNE AINÉE 2 27 01:09:33 06:49 8.80
899 7159 COENEN CAMILLE SENIOR D 126 01:09:34 06:49 8.80
900 7021 THONON OLIVIER VETERAN 1 169 01:09:39 06:50 8.79
901 7022 MASSET ANNE AINÉE 1 49 01:09:39 06:50 8.79
902 7083 LARUELLE TERRY SENIOR H 362 01:09:47 06:50 8.77
903 7034 PAULUS LAURENCE VETERAN 1 170 01:09:47 06:50 8.77
904 7082 DE LUNARDO ADELINE SENIOR D 127 01:09:48 06:51 8.77
905 7437 DELHALLE FRANCINE AINÉE 2 28 01:09:49 06:51 8.77
906 7760 ODEURS JEAN-CLAUD VETERAN 3 22 01:10:21 06:54 8.70
907 7199 NEUVILLE AURORE SENIOR D 128 01:10:29 06:55 8.68
908 7137 MEERS MADY SENIOR D 129 01:10:42 06:56 8.66
909 3266 HELAS ROMAIN ESPOIR H 50 01:10:45 06:56 8.65
910 7736 HARDY DAVID SENIOR H 363 01:10:51 06:57 8.64
911 7198 NEUVILLE INGRID SENIOR D 130 01:10:58 06:57 8.62
912 7115 DREYE ARLETTE AINÉE 3 1 01:11:01 06:58 8.62
913 7333 BAUMANS LAURA SENIOR D 131 01:11:01 06:58 8.62
914 3181 CESAR JONATHAN SENIOR H 364 01:11:01 06:58 8.62
915 7583 VOSSEN AURELIE SENIOR D 132 01:11:13 06:59 8.59
916 3399 SPAGNOLETTI SANDRA AINÉE 1 50 01:11:13 06:59 8.59
917 7465 VANOLANDE MARC VÉTÉRAN 2 77 01:11:17 06:59 8.59
918 3435 WINAND VALÉRIE AINÉE 1 51 01:11:20 07:00 8.58
919 3419 VAROTTO CLOTILDE SENIOR D 133 01:11:24 07:00 8.57
920 7141 RENAETS ARNAUD SENIOR H 365 01:11:43 07:02 8.53
921 7472 VAES MARIE AINÉE 1 52 01:11:44 07:02 8.53
922 7710 GREVESSE RENAUD SENIOR H 366 01:12:04 07:04 8.49
923 3212 DELMAL SOPHIE SENIOR D 134 01:12:14 07:05 8.47
924 3197 DAVID BERNADETTE AINÉE 3 2 01:12:42 07:08 8.42
925 7243 MATHOT JOEL VÉTÉRAN 2 78 01:12:56 07:09 8.39
926 7072 BADA ARIANE AINÉE 1 53 01:13:04 07:10 8.38
927 7074 VIROUX CLAUDIA AINÉE 2 29 01:13:04 07:10 8.38
928 7031 MANGUETTE NICOLAS SENIOR H 367 01:13:05 07:10 8.37
929 7711 PRINCE LOUIS SENIOR H 368 01:13:06 07:10 8.37
930 3103 THEYS VIRGINIE AINÉE 1 54 01:13:08 07:10 8.37
931 3093 SCALAIS CATHERINE AINÉE 2 30 01:13:09 07:10 8.37
932 3191 CREME DANY VÉTÉRAN 2 79 01:13:10 07:10 8.36
933 3417 VANDEZANDE JONATHAN SENIOR H 369 01:13:12 07:11 8.36
934 3298 LAMBERT ELISE SENIOR D 135 01:13:13 07:11 8.36
935 3280 KELDERMANS STEF ESPOIR H 51 01:13:18 07:11 8.35
936 7112 INNAURATO PATRICIA AINÉE 1 55 01:13:20 07:11 8.35
937 3001 FOURGEAUX SOPHIE SENIOR D 136 01:13:24 07:12 8.34
938 3003 MASSON MURIELLE AINÉE 1 56 01:13:24 07:12 8.34
939 3049 WOJNOWSKI AUDREY SENIOR D 137 01:13:24 07:12 8.34
940 3004 MASSON VÉRONIQUE AINÉE 1 57 01:13:24 07:12 8.34
941 7434 HUBERT LAURENCE AINÉE 1 58 01:13:24 07:12 8.34
942 3360 PETRY MÉLANIE SENIOR D 138 01:13:35 07:13 8.32
943 3089 HATERT BENEDICTE SENIOR D 139 01:13:45 07:14 8.30
944 3111 GODEFROID ZOÉ ESPOIR D 7 01:13:50 07:14 8.29
945 7224 MARISSIAUX PIERRE VETERAN 1 171 01:13:50 07:14 8.29
946 7343 GODEFROID ROMAIN ESPOIR H 52 01:13:55 07:15 8.28
947 7717 BURON JEAN-PAUL VETERAN 3 23 01:14:29 07:18 8.22
948 3375 PRAILLET KATIA SENIOR D 140 01:14:37 07:19 8.20
949 7063 RONZULLO MICHELLA AINÉE 1 59 01:14:55 07:21 8.17
950 7062 DUBOIS GENEVIEVE AINÉE 1 60 01:14:55 07:21 8.17
951 3358 PARADOWSKI TAMARA SENIOR H 370 01:14:57 07:21 8.17
952 7584 TICHAN LAURIE SENIOR D 141 01:15:40 07:25 8.09
953 3116 MACCAN STEFANIA AINÉE 1 61 01:15:48 07:26 8.07
954 3100 JUSKOWIAK PATRICK VÉTÉRAN 2 80 01:15:48 07:26 8.07
955 3101 PAVONI DOMINIQUE AINÉE 2 31 01:15:48 07:26 8.07
956 3113 DI STEFANO BRUNO SENIOR H 371 01:15:49 07:26 8.07
957 3114 LACROIX SARAH SENIOR D 142 01:16:23 07:29 8.01
958 3112 CHARLIER MÉLISSA SENIOR D 143 01:16:24 07:29 8.01
959 3092 OGER MAUREEN SENIOR D 144 01:16:24 07:29 8.01
960 3263 HARISSIS ATHINA SENIOR D 145 01:18:06 07:39 7.84
961 3246 GENOT FABIENNE AINÉE 2 32 01:18:07 07:40 7.83
962 3174 BURLET VERONIQUE AINÉE 1 62 01:18:08 07:40 7.83
963 3098 GILSON PASCALE AINÉE 1 63 01:18:36 07:42 7.79
964 3373 POISQUET FANNY SENIOR D 146 01:18:39 07:43 7.78
965 3097 GILLOT CORINNE AINÉE 1 64 01:18:41 07:43 7.78
966 7359 FRISSCHEN STEPHANIE AINÉE 1 65 01:18:46 07:43 7.77
967 7360 BOURGUIGNON MARTINE AINÉE 2 33 01:19:10 07:46 7.73
968 7153 HAUTECLER CHRISTIAN VETERAN 3 24 01:19:29 07:48 7.70
969 3133 CATOUL OLIVIER SENIOR H 372 01:19:29 07:48 7.70
970 2317 MICHOTTE VALERIE AINÉE 1 66 01:19:37 07:48 7.69
971 3018 COENEN PAULINE ESPOIR D 8 01:19:47 07:49 7.67
972 7035 FLORKIN FREDERIC VÉTÉRAN 2 81 01:19:51 07:50 7.66
973 7203 GHINEA MIRAELA AINÉE 1 67 01:19:51 07:50 7.66
974 3096 DAVIN LISE SENIOR D 147 01:20:13 07:52 7.63
975 3068 KRAMER STEVEN VÉTÉRAN 2 82 01:20:44 07:55 7.58
976 3365 PIERRE CHARLOTTE SENIOR D 148 01:20:52 07:56 7.57
977 3430 WALRANT MARIE SENIOR D 149 01:20:53 07:56 7.57
978 7705 LIZEN AXELLE SENIOR D 150 01:21:25 07:59 7.52
979 7706 CAPITANO LINDA AINÉE 2 34 01:21:25 07:59 7.52
980 3106 BOZET CARINE AINÉE 1 68 01:21:25 07:59 7.52
981 7008 LEKEU JOEY SENIOR H 373 01:23:47 08:13 7.30
982 3137 DE LUCA GERARDO VETERAN 1 172 01:23:49 08:13 7.30
983 3195 CUTAIA ANTONIO VETERAN 3 25 01:23:49 08:13 7.30
984 7496 PAULUS SAMANTHA ESPOIR D 9 01:23:53 08:13 7.30
985 3117 PIAZZA PHILIPPE VETERAN 1 173 01:33:33 09:10 6.54
986 3254 GODELET CHRISTIAN VETERAN 1 174 01:35:40 09:23 6.40
987 7075 GAUDISSEUR LIONEL SENIOR H 374 01:35:40 09:23 6.40
988 3205 DEGHILAGE DANY SENIOR H 375 01:42:53 10:05 5.95
               
Nos dernières videos